Piney Island, NC

6:15 PM EDT on April 28, 2017 (GMT -0400)
Piney Island

Weather History for KNBT - August, 2012

Change the Weather History Date:

Tuesday, August 28, 2012

  Actual Average (KMRH) Record (KMRH)
Temperature  
Mean Temperature 82 °F -  
Max Temperature 87 °F 86 °F 94 °F (1978)
Min Temperature 77 °F 70 °F 61 °F (1984)
Cooling Degree Days 17    
Growing Degree Days 32 (Base 50)    
Moisture  
Dew Point 76 °F    
Average Humidity 88    
Maximum Humidity 94    
Minimum Humidity 69    
Precipitation  
Precipitation 0.33 in - - ()
Sea Level Pressure  
Sea Level Pressure 30.01 in    
Wind  
Wind Speed 6 mph (SSW)    
Max Wind Speed 21 mph    
Max Gust Speed 28 mph    
Visibility 8 miles    
Events Rain    
Averages and records for this station are not official NWS values.
T = Trace of Precipitation, MM = Missing Value Source: NWS Daily Summary

Daily Weather History Graph

Daily Weather History Graph

Search for Another Location

Airport or City:

Trip Planner

Search our weather history database for the weather conditions in past years. The results will help you decide how hot, cold, wet, or windy it might be!

Date:

Astronomy

Aug. 28, 2012 Rise Set
Actual Time 6:35 AM EDT 7:37 PM EDT
Civil Twilight 6:09 AM EDT 8:03 PM EDT
Nautical Twilight 5:38 AM EDT 8:34 PM EDT
Astronomical Twilight 5:07 AM EDT 9:05 PM EDT
Moon 5:34 PM EDT 3:27 AM EDT
Length of Visible Light 13h 53m
Length of Day
13h 01m
Waxing Gibbous, 90% of the Moon is Illuminated
Aug 28
Waxing Gibbous
Aug 31
Full
Sep 8
Last Quarter
Sep 15
New
Sep 22
First Quarter

Hourly Weather History & Observations

Time (EDT) Temp. Heat Index Dew Point Humidity Pressure Visibility Wind Dir Wind Speed Gust Speed Precip Events Conditions
12:56 AM 80.1 °F 85.4 °F 75.9 °F 87% 30.05 in 10.0 mi Calm Calm - N/A   Clear
1:56 AM 79.0 °F - 75.9 °F 90% 30.05 in 10.0 mi South 3.5 mph - N/A   Clear
2:56 AM 79.0 °F - 75.9 °F 90% 30.03 in 9.0 mi South 3.5 mph - N/A   Clear
3:56 AM 78.1 °F - 75.9 °F 93% 30.03 in 9.0 mi South 3.5 mph - N/A   Clear
4:56 AM 78.1 °F - 75.0 °F 90% 30.03 in 9.0 mi Calm Calm - N/A   Clear
5:56 AM 78.1 °F - 75.0 °F 90% 30.03 in 8.0 mi SSW 4.6 mph - N/A   Clear
6:56 AM 78.1 °F - 75.9 °F 93% 30.03 in 7.0 mi Calm Calm - N/A   Clear
7:56 AM 80.1 °F 85.8 °F 77.0 °F 90% 30.04 in 8.0 mi Calm Calm - N/A   Clear
8:56 AM 82.0 °F 91.0 °F 78.1 °F 88% 30.05 in 10.0 mi SSW 5.8 mph - N/A   Clear
9:05 AM 82.4 °F 92.4 °F 78.8 °F 89% 30.03 in 2.0 mi SSW 4.6 mph - N/A   Haze
9:14 AM 82.4 °F 92.4 °F 78.8 °F 89% 30.03 in 10.0 mi SSW 6.9 mph - N/A   Clear
9:56 AM 84.0 °F 93.7 °F 77.0 °F 79% 30.04 in 10.0 mi SSW 6.9 mph - N/A   Partly Cloudy
10:56 AM 87.1 °F 97.3 °F 75.9 °F 69% 30.04 in 10.0 mi SSW 10.4 mph - N/A   Mostly Cloudy
11:14 AM 82.4 °F 88.2 °F 73.4 °F 74% 30.03 in 10.0 mi South 9.2 mph 18.4 mph N/A   Mostly Cloudy
11:20 AM 80.6 °F 86.2 °F 75.2 °F 84% 30.03 in 1.8 mi SSW 20.7 mph 27.6 mph 0.12 in Rain Heavy Rain
11:23 AM 80.6 °F 86.2 °F 75.2 °F 84% 30.03 in 0.8 mi SSE 8.1 mph 27.6 mph 0.19 in Rain Heavy Rain
11:31 AM 80.6 °F 87.1 °F 77.0 °F 89% 30.03 in 2.5 mi SSW 8.1 mph - 0.19 in Rain Light Rain
11:38 AM 80.6 °F 87.1 °F 77.0 °F 89% 30.02 in 8.0 mi SSW 5.8 mph - 0.19 in Rain Light Rain
11:56 AM 82.0 °F 91.6 °F 79.0 °F 90% 30.04 in 8.0 mi SW 5.8 mph - 0.20 in Rain Light Rain
12:44 PM 78.8 °F - 75.2 °F 89% 30.01 in 6.0 mi SSW 13.8 mph - 0.06 in Rain Light Rain
12:56 PM 79.0 °F - 77.0 °F 94% 30.02 in 10.0 mi SSW 11.5 mph - 0.07 in Rain Light Rain
1:56 PM 80.1 °F 85.4 °F 75.9 °F 87% 30.02 in 10.0 mi SSW 9.2 mph - 0.00 in   Clear
2:31 PM 80.6 °F 86.2 °F 75.2 °F 84% 30.00 in 10.0 mi SSW 11.5 mph - 0.00 in Rain Light Rain
2:56 PM 80.1 °F 85.1 °F 75.0 °F 85% 30.01 in 10.0 mi SW 11.5 mph 19.6 mph 0.00 in   Scattered Clouds
3:56 PM 80.1 °F 85.1 °F 75.0 °F 85% 30.00 in 10.0 mi SW 10.4 mph 17.3 mph 0.01 in Rain Light Rain
4:56 PM 80.1 °F 85.1 °F 75.0 °F 85% 30.00 in 10.0 mi SSW 12.7 mph - 0.00 in Rain Light Rain
5:56 PM 79.0 °F - 75.0 °F 88% 30.00 in 10.0 mi SSW 11.5 mph - 0.00 in Rain Light Rain
6:15 PM 78.8 °F - 75.2 °F 89% 29.99 in 7.0 mi SW 15.0 mph 20.7 mph 0.01 in Rain Light Rain
6:30 PM 78.8 °F - 75.2 °F 89% 29.98 in 7.0 mi SW 12.7 mph - 0.02 in Rain Light Rain
6:38 PM 78.8 °F - 75.2 °F 89% 29.98 in 7.0 mi SW 11.5 mph - 0.03 in Rain Light Rain
6:56 PM 78.1 °F - 75.0 °F 90% 29.99 in 9.0 mi SW 16.1 mph 19.6 mph 0.03 in Rain Light Rain
7:56 PM 77.0 °F - 73.9 °F 90% 29.95 in 10.0 mi SSW 12.7 mph - 0.01 in   Clear
8:17 PM 78.8 °F - 75.2 °F 89% 29.93 in 10.0 mi SW 9.2 mph - N/A   Partly Cloudy
8:56 PM 78.1 °F - 73.9 °F 87% 29.98 in 10.0 mi West 8.1 mph - 0.00 in Rain Light Rain
9:56 PM 77.0 °F - 75.0 °F 94% 29.98 in 10.0 mi West 4.6 mph - 0.01 in   Partly Cloudy
10:56 PM 78.1 °F - 75.0 °F 90% 29.98 in 10.0 mi SSW 3.5 mph - N/A   Scattered Clouds
11:56 PM 78.1 °F - 75.0 °F 90% 29.98 in 10.0 mi SW 4.6 mph - N/A   Overcast